Newark, NJ

5:06 AM EDT on October 14, 2019 (GMT -0400)
Newark International

Weather History for KEWR - May, 2019

Change the Weather History Date:

Tuesday, May 14, 2019

  Actual Average Record
Temperature  
Mean Temperature 48 °F 62 °F  
Max Temperature 52 °F 72 °F 86 °F (1985)
Min Temperature 44 °F 53 °F 36 °F (1939)
Degree Days  
Heating Degree Days 17 5  
Month to date heating degree days 97 85  
Since 1 July heating degree days 4691 4805  
Cooling Degree Days 0 2  
Month to date cooling degree days 2 15  
Year to date cooling degree days 17 27  
Moisture  
Dew Point 45 °F    
Average Humidity 90    
Maximum Humidity 100    
Minimum Humidity 80    
Precipitation  
Precipitation 0.28 in 0.12 in 1.96 in (1946)
Month to date precipitation 4.60 1.73  
Year to date precipitation 20.25 16.53  
Snow  
Snow 0.00 in 0.00 in 0.00 in (2002)
Month to date snowfall 0.0 0.0  
Since 1 July snowfall 22.0 28.5  
Snow Depth 0.00 in    
Sea Level Pressure  
Sea Level Pressure 29.82 in    
Wind  
Wind Speed 6 mph ()    
Max Wind Speed 16 mph    
Max Gust Speed 21 mph    
Visibility 6.7 miles    
Events Rain    
T = Trace of Precipitation, MM = Missing Value Source: Averaged Metar Reports

Daily Weather History Graph

Daily Weather History Graph

Search for Another Location

Airport or City:

Astronomy

May. 14, 2019 Rise Set
Actual Time 5:40 AM EDT 8:05 PM EDT
Civil Twilight 5:09 AM EDT 8:36 PM EDT
Nautical Twilight 4:31 AM EDT 9:15 PM EDT
Astronomical Twilight 3:49 AM EDT 9:58 PM EDT
Moon 3:22 PM EDT 3:34 AM EDT
Length of Visible Light 15h 26m
Length of Day
14h 24m
Waxing Gibbous, 79% of the Moon is Illuminated
May 14
Waxing Gibbous
May 18
Full
May 26
Last Quarter
Jun 3
New
Jun 10
First Quarter

Hourly Weather History & Observations

Time (EDT) Temp. Windchill Dew Point Humidity Pressure Visibility Wind Dir Wind Speed Gust Speed Precip Events Conditions
12:51 AM 48.0 °F - 43.0 °F 83% 29.84 in 9.0 mi NE 5.8 mph - N/A   Overcast
1:23 AM 46.0 °F 41.4 °F 43.0 °F 89% 29.83 in 6.0 mi North 9.2 mph - 0.00 in   Light Drizzle
1:39 AM 46.0 °F 41.4 °F 43.0 °F 89% 29.83 in 6.0 mi North 9.2 mph - 0.00 in   Light Drizzle
1:51 AM 45.0 °F 40.1 °F 44.1 °F 97% 29.83 in 6.0 mi North 9.2 mph - 0.00 in   Light Drizzle
2:51 AM 45.0 °F 40.1 °F 43.0 °F 93% 29.81 in 6.0 mi North 9.2 mph - 0.00 in   Light Drizzle
3:51 AM 45.0 °F 40.6 °F 43.0 °F 93% 29.81 in 9.0 mi North 8.1 mph - 0.00 in   Overcast
4:51 AM 45.0 °F 40.6 °F 43.0 °F 93% 29.81 in 8.0 mi NNE 8.1 mph - 0.00 in   Light Drizzle
5:51 AM 45.0 °F 42.6 °F 43.0 °F 93% 29.82 in 8.0 mi North 4.6 mph - 0.00 in   Light Drizzle
6:12 AM 45.0 °F 42.6 °F 44.1 °F 97% 29.83 in 2.0 mi NE 4.6 mph - 0.01 in   Light Drizzle
6:51 AM 45.0 °F 42.6 °F 44.1 °F 97% 29.83 in 2.0 mi NNE 4.6 mph - 0.01 in   Light Drizzle
7:51 AM 46.0 °F 43.9 °F 44.1 °F 93% 29.84 in 2.0 mi NNE 4.6 mph - 0.00 in   Light Drizzle
7:58 AM 45.0 °F 42.6 °F 44.1 °F 97% 29.84 in 4.0 mi NNE 4.6 mph - 0.00 in Rain Light Rain
8:20 AM 46.0 °F 43.1 °F 45.0 °F 96% 29.84 in 2.0 mi NNE 5.8 mph - 0.01 in Rain Light Rain
8:51 AM 46.0 °F 44.8 °F 45.0 °F 96% 29.84 in 2.0 mi NNE 3.5 mph - 0.01 in   Light Drizzle
9:48 AM 46.4 °F 45.2 °F 44.6 °F 93% 29.84 in 7.0 mi Variable 3.5 mph - 0.01 in   Overcast
9:51 AM 46.9 °F - 44.1 °F 90% 29.84 in 7.0 mi Calm Calm - 0.01 in   Overcast
10:51 AM 48.9 °F - 45.0 °F 86% 29.83 in 10.0 mi Variable 3.5 mph - N/A   Overcast
11:12 AM 48.9 °F - 45.0 °F 86% 29.84 in 10.0 mi Calm Calm - N/A   Overcast
11:51 AM 50.0 °F - 46.0 °F 86% 29.83 in 10.0 mi SE 3.5 mph - N/A   Overcast
12:51 PM 51.1 °F - 46.0 °F 83% 29.81 in 10.0 mi Variable 3.5 mph - N/A   Overcast
1:49 PM 50.0 °F - 46.4 °F 87% 29.81 in 6.0 mi SSE 8.1 mph - 0.01 in Rain Light Rain
1:51 PM 50.0 °F - 46.0 °F 86% 29.81 in 6.0 mi SSE 6.9 mph - 0.01 in Rain Light Rain
2:28 PM 52.0 °F - 48.0 °F 86% 29.80 in 10.0 mi ESE 5.8 mph - 0.00 in   Overcast
2:51 PM 51.1 °F - 46.9 °F 86% 29.80 in 8.0 mi Variable 4.6 mph - 0.01 in Rain Light Rain
3:51 PM 51.1 °F - 48.9 °F 92% 29.78 in 4.0 mi ESE 4.6 mph - 0.08 in Rain Light Rain
4:51 PM 51.1 °F - 48.0 °F 89% 29.78 in 9.0 mi SE 6.9 mph - 0.00 in Rain Light Rain
5:51 PM 51.1 °F - 48.0 °F 89% 29.79 in 5.0 mi Calm Calm - 0.01 in Rain Light Rain
5:56 PM 50.0 °F - 48.0 °F 93% 29.79 in 2.0 mi Variable 3.5 mph - 0.01 in Rain Rain
5:59 PM 50.0 °F - 48.0 °F 93% 29.79 in 5.0 mi SE 3.5 mph - 0.03 in Rain Heavy Rain
6:51 PM 50.0 °F - 48.0 °F 93% 29.80 in 4.0 mi South 4.6 mph - 0.09 in Rain Light Rain
6:53 PM 50.0 °F - 48.0 °F 93% 29.80 in 2.5 mi South 3.5 mph - 0.00 in Rain Light Rain
6:57 PM 50.0 °F - 48.0 °F 93% 29.80 in 4.0 mi Calm Calm - 0.03 in Rain Heavy Rain
7:26 PM 51.1 °F - 46.9 °F 86% 29.81 in 10.0 mi NW 9.2 mph - 0.04 in Rain Light Rain
7:51 PM 50.0 °F - 45.0 °F 83% 29.82 in 10.0 mi NW 15.0 mph - 0.04 in Rain Light Rain
8:51 PM 48.9 °F - 44.1 °F 83% 29.83 in 10.0 mi WNW 10.4 mph - 0.01 in Rain Light Rain
9:51 PM 48.0 °F - 44.1 °F 86% 29.84 in 10.0 mi NW 8.1 mph - 0.00 in Rain Light Rain
10:51 PM 48.0 °F - 43.0 °F 83% 29.83 in 10.0 mi NW 9.2 mph - 0.00 in   Mostly Cloudy
11:24 PM 48.0 °F - 43.0 °F 83% 29.84 in 10.0 mi NW 6.9 mph - N/A   Overcast
11:51 PM 48.0 °F - 43.0 °F 83% 29.84 in 10.0 mi NW 10.4 mph - N/A   Overcast